Location: G�kdere
(37.0328°N, 30.9000°E)
Time: 04:17:21
(UTC+00:00)

Cosmos 2333 Rocket - Pass Details

Date: 03 March 2021
Orbit: 837 x 864 km, 70.8° (Epoch: 20 April)

Event Time Altitude Azimuth Distance (km) Brightness Sun altitude
Rises 18:46:48 0° 235° (SW) 3,387 5.7 -35.1°
Reaches altitude 10° 18:49:40 10° 249° (WSW) 2,460 5.1 -35.6°
Maximum altitude 18:54:14 25° 303° (WNW) 1,661 4.2 -36.4°
Drops below altitude 10° 18:58:51 10° 357° (N) 2,486 4.9 -37.3°
Sets 19:01:47 0° 11° (N) 3,430 5.5 -37.8°
